Regional Weather Roundup
Issued by NWS

Home | Current Version | Previous Version | Graphics & Text | Print | Product List | Glossary On
Versions: 1 2 3 4 5 6 7 8 9 10 11 12 13 14 15 16 17 18 19 20 21 22 23 24 25 26 27 28 29 30 31 32 33 34 35 36 37 38 39 40 41 42 43 44 45 46 47 48 49 50
000
ASUS43 KLSX 281659
RWRMO

WEATHER SUMMARY FOR MISSOURI
NATIONAL WEATHER SERVICE SPRINGFIELD MO
1200 PM CDT MON JUL 28 2014

NOTE: "FAIR" INDICATES FEW OR NO CLOUDS BELOW 12,000 FEET WITH NO
       SIGNIFICANT WEATHER AND/OR OBSTRUCTIONS TO VISIBILITY.
       CURRENT SKY AND/OR WEATHER CONDITIONS ARE NOT AVAILABLE FOR
       CHILLICOTHE AND FARMINGTON.

MOZ001>031-035>038-043-044-053-054-281800-
...NORTHERN AND WESTERN MISSOURI...

CITY           SKY/WX    TMP DP  RH WIND       PRES   REMARKS
KANSAS CTY INT PTSUNNY   75  61  61 N8        30.24R
KANSAS C DTWN  PTSUNNY   76  62  62 VRB7      30.22F
LEE`S SUMMIT   MOSUNNY   77  60  55 N10G16    30.23S
ST JOSEPH      PTSUNNY   71  62  73 NW8       30.25R
CHILLICOTHE      N/A     75  59  57 VRB7      30.22R
KIRKSVILLE     PTSUNNY   72  57  59 N12       30.21S

$$
MOZ066>068-077>081-088>096-101>105-281800-
...SOUTHWEST MISSOURI...

CITY           SKY/WX    TMP DP  RH WIND       PRES   REMARKS
SPRINGFIELD    SUNNY     77  56  48 NW5       30.20S
JOPLIN         SUNNY     80  57  45 N10       30.23S

$$
MOZ032>034-039>042-045>050-055>058-069>072-281800-
...CENTRAL MISSOURI...

CITY           SKY/WX    TMP DP  RH WIND       PRES   REMARKS
COLUMBIA       PTSUNNY   78  60  53 N9G18     30.17S
JEFFERSON CITY PTSUNNY   76  59  55 NW10      30.16R
ROLLA          MOSUNNY   77  58  51 N8        30.15R
SEDALIA        PTSUNNY   76  62  62 N12       30.20S
OSAGE BEACH    PTSUNNY   77  57  50 NW8       30.18R

$$
MOZ051-052-059>065-281800-
...EAST CENTRAL MISSOURI...

CITY           SKY/WX    TMP DP  RH WIND       PRES   REMARKS
ST LOUIS INTL  PTSUNNY   75  63  66 N8        30.12S
SPIRIT OF STL  PTSUNNY   76  59  55 N10       30.11S
ST CHARLES     PTSUNNY   75  59  57 N10       30.11S

$$
MOZ072>076-082>087-097>100-106>115-281800-
...SOUTH CENTRAL AND SOUTHEAST MISSOURI...

CITY           SKY/WX    TMP DP  RH WIND       PRES   REMARKS
CAPE GIRARDEAU PTSUNNY   77  63  61 NW9       30.08F
FARMINGTON     MOSUNNY   75  61  60 N10       30.14S
POPLAR BLUFF   MOSUNNY   80  60  50 N5        30.08F
WEST PLAINS    SUNNY     79  59  50 N7        30.17S

$$



USA.gov is the U.S. government's official web portal to all federal, state and local government web resources and services.